THORAD DELTA 1 DEB, 42591

Orbit data source: Space-Track

THORAD DELTA 1 DEB, 42591 is space debris in SSO originally from a launch on Fri, 15 Nov 1974 UTC launched from the Air Force Western Test Range (AFWTR). Debris objects in space refer to the collection of defunct objects orbiting the Earth. Examples of debris include non-operational satellites, rocket bodies, and fragments generated from explosions, collisions, or faulty payload assembly.

Loading next visibility...
Identifier
42591, 1974-089BV
Orbit
SSO
Country
Flag of USUS
Related business
Manufacturer
Unknown
Mission
Spacecraft
Bus & Motor
Unknown
Mass
Unknown
Launch date (UTC)
1974-11-15 (51 years ago)
Launch vehicle
Unknown
Launch site
Air Force Western Test Range (AFWTR)
Object type
Payload
Rocket body
Debris
Shape & HBR
Unknown shape, 0.1 m
Radar Cross Section
Small (<0.1 m²)

Expand to show TLE details & history
Last TLE update: 2 days ago

TLE from 2 days ago
0 THORAD DELTA 1 DEB
1 42591U 74089BV  26128.58949561  .00000025  00000-0  54161-3 0  9992
2 42591 101.8217 239.5387 0115338 314.0522  45.1085 12.34042036809418
Epoch: 2026-05-08T14:08Z
TLE epoch observation values (Epoch: 2026-05-08T14:08:52.420Z)
Latitude
-0.00005°
Longitude
160.90119°
Altitude
1,470.645 km
Speed
7.156 km/s
True Right ascension
15h 58m 09s
True Declination
0° 00' 00"
Sunlit
Object was in full shadow at epoch
Visualization orbit readout
Latitude
Unknown
Longitude
Unknown
Altitude
Unknown
Speed
Unknown
Apparent Right ascension
Unknown
Apparent Declination
Unknown
Sunlit
N/A
Visualization observer readout
Local Sidereal Time
21:11:24
Azimuth
Unknown
Elevation
Unknown
Doppler factor
Unknown
Orbital elements
Apogee altitude
1,620.738 km
Perigee altitude
1,438.327 km
Semi-major axis
7,907.67 km
Eccentricity
0.01153
Inclination
101.8217°
RAAN
239.5387°
Arg. of periapsis
314.0522°
True anomaly
46.05441°
Mean anomaly
45.1085°
Eccentric anomaly
45.58049°
Mean motion
3.08653 °/min
Orbital period
116.64 mins
BSTAR
0.00054161
Loading maneuver chart data...
Computing Atmospheric mass density...

Documentation

Showing up to 5 results
|